EW3012 Weather Reports


time (UTC)temp
C
wind
direction
speed
KPH
gust
KPH
rain 1hr
cm
rain 24hr
cm
rain mn
cm
humidity
%
barometer
mb
20260506121037 23 179 0.0 9.7 0.00 0.00 0.03 48 1014.4
20260506120542 23 185 0.0 14.5 0.00 0.00 0.03 51 1014.4
20260506120501 23 144 4.8 14.5 0.00 0.00 0.03 49 1014.4
20260506115534 23 17 0.0 14.5 0.00 0.00 0.03 51 1014.4
20260506115033 23 142 3.2 14.5 0.00 0.00 0.03 53 1014.4
20260506114531 23 350 1.6 9.7 0.00 0.00 0.03 49 1014.4
20260506114034 23 94 3.2 9.7 0.00 0.00 0.03 50 1014.5
20260506113531 23 131 0.0 9.7 0.00 0.00 0.03 50 1014.5
20260506113032 23 148 1.6 14.5 0.00 0.00 0.03 51 1014.5
20260506112531 23 138 1.6 14.5 0.00 0.00 0.03 51 1014.5
20260506112029 23 116 3.2 8.0 0.00 0.00 0.03 49 1014.5
20260506111531 23 75 0.0 8.0 0.00 0.00 0.03 50 1014.5
20260506111029 23 102 1.6 14.5 0.00 0.00 0.03 48 1014.5
20260506110538 23 96 3.2 14.5 0.00 0.00 0.03 49 1014.5
20260506110030 23 117 0.0 14.5 0.00 0.00 0.03 49 1014.5
20260506105528 23 154 3.2 14.5 0.00 0.00 0.03 48 1014.5
20260506105029 23 155 1.6 9.7 0.00 0.00 0.03 47 1014.5
20260506104528 23 179 3.2 11.3 0.00 0.00 0.03 48 1014.7
20260506104026 23 65 3.2 11.3 0.00 0.00 0.03 49 1014.7
20260506103527 23 78 3.2 9.7 0.00 0.00 0.03 48 1014.5
20260506103025 23 223 1.6 9.7 0.00 0.00 0.03 48 1014.5
20260506102523 23 168 0.0 9.7 0.00 0.00 0.03 49 1014.5
20260506102017 22 176 0.0 16.1 0.00 0.00 0.03 52 1014.7
20260506101519 23 151 3.2 16.1 0.00 0.00 0.03 50 1014.7
20260506101016 22 155 0.0 14.5 0.00 0.00 0.03 52 1014.5
20260506100514 22 137 0.0 8.0 0.00 0.00 0.03 51 1014.7
20260506100018 22 271 0.0 9.7 0.00 0.00 0.03 51 1014.7
20260506095514 22 121 3.2 9.7 0.00 0.00 0.03 49 1014.8
20260506095016 22 241 1.6 14.5 0.00 0.00 0.03 50 1014.8
20260506094516 23 164 3.2 14.5 0.00 0.00 0.03 49 1014.9
20260506094015 22 219 1.6 6.4 0.00 0.00 0.03 52 1014.8
20260506093516 22 166 0.0 11.3 0.00 0.00 0.03 49 1014.9
20260506093436 22 161 0.0 16.1 0.00 0.00 0.03 52 1014.9
20260506092932 23 190 4.8 16.1 0.00 0.00 0.03 52 1014.8
20260506092014 23 121 0.0 11.3 0.00 0.00 0.03 52 1014.8
20260506091514 22 161 6.4 11.3 0.00 0.00 0.03 52 1014.8
20260506091429 -17 0.0 0.0 0.00 0.00 0.03 1014.8
20260506061548 19 258 0.0 0.0 0.00 0.30 0.03 69 1014.7
20260506061049 18 258 0.0 0.0 0.00 0.30 0.03 74 1014.7
20260506060549 17 258 0.0 0.0 0.00 0.30 0.03 74 1014.8
20260506051225 12 264 0.0 0.0 0.00 0.30 0.03 80 1014.8
20260506044531 9 275 0.0 0.0 0.03 0.30 0.03 80 1014.5
20260506044032 8 275 0.0 1.6 0.03 0.30 0.03 80 1014.5
20260506043531 8 250 0.0 1.6 0.03 0.30 0.03 80 1014.5
20260506043032 8 244 0.0 0.0 0.03 0.30 0.03 80 1014.5
20260506042530 7 244 0.0 1.6 0.03 0.30 0.03 80 1014.8
20260506042445 7 268 0.0 3.2 0.03 0.30 0.03 80 1014.7
20260506041527 7 231 0.0 6.4 0.03 0.30 0.03 80 1014.4
20260506041024 7 274 1.6 6.4 0.03 0.30 0.03 80 1014.5
20260506040522 6 247 0.0 0.0 0.03 0.30 0.03 80 1014.4
20260506040022 6 271 0.0 0.0 0.03 0.30 0.03 81 1014.5
20260506035513 5 271 0.0 0.0 0.03 0.28 0.03 81 1014.7
20260506035013 5 271 0.0 0.0 0.03 0.28 0.03 81 1014.5
20260506034512 5 235 0.0 0.0 0.00 0.28 0.00 81 1014.5
20260506034433 5 244 0.0 0.0 0.00 0.28 0.00 81 1014.4
20260506033511 5 244 0.0 0.0 0.00 0.28 0.00 81 1014.4
20260506033009 5 244 0.0 0.0 0.00 0.28 0.00 81 1014.4
20260506032509 5 244 0.0 0.0 0.00 0.28 0.00 81 1014.4
20260506032425 5 244 0.0 0.0 0.00 0.28 0.00 81 1014.3
20260506031507 5 244 0.0 0.0 0.00 0.28 0.00 82 1014.3
20260506031007 5 244 0.0 0.0 0.00 0.28 0.00 82 1014.4
20260506030508 5 244 0.0 0.0 0.00 0.28 0.00 82 1014.3
20260506030006 5 244 0.0 0.0 0.00 0.28 0.00 82 1014.2
20260506025505 5 244 0.0 0.0 0.00 0.28 0.00 81 1014.3
20260506025422 5 244 0.0 0.0 0.00 0.28 0.00 81 1014.2
20260506024504 5 244 0.0 0.0 0.00 0.28 0.00 82 1014.3
20260506024005 5 244 0.0 0.0 0.00 0.28 0.00 82 1014.2
20260506023503 5 244 0.0 0.0 0.00 0.28 0.00 81 1014.2
20260506023004 5 231 0.0 0.0 0.00 0.28 0.00 81 1014.1
20260506022504 5 244 0.0 0.0 0.00 0.28 0.00 81 1014.1
20260506022004 5 259 0.0 0.0 0.00 0.28 0.00 82 1014.2
20260506021503 5 261 0.0 0.0 0.00 0.28 0.00 82 1014.1
20260506021002 5 261 0.0 0.0 0.00 0.28 0.00 82 1014.1
20260506020502 5 259 0.0 0.0 0.00 0.28 0.00 82 1014.1
20260506020004 6 251 0.0 0.0 0.00 0.28 0.00 82 1014.1
20260506015504 6 251 0.0 0.0 0.00 0.28 0.00 82 1014.1
20260506015005 6 237 0.0 0.0 0.00 0.28 0.00 81 1014.1
20260506014501 6 278 0.0 0.0 0.00 0.28 0.00 81 1014.1
20260506014003 6 241 0.0 0.0 0.00 0.28 0.00 82 1014.1
20260506013501 6 233 0.0 0.0 0.00 0.28 0.00 81 1014.0
20260506013001 6 258 0.0 0.0 0.00 0.28 0.00 81 1014.0
20260506012503 6 251 0.0 6.4 0.00 0.28 0.00 81 1014.1
20260506012002 6 199 0.0 6.4 0.00 0.28 0.00 81 1014.1
20260506011502 5 223 0.0 0.0 0.00 0.28 0.00 82 1014.0
20260506011000 5 226 0.0 0.0 0.00 0.28 0.00 82 1014.1
20260506010502 5 226 0.0 0.0 0.00 0.28 0.00 82 1014.0
20260506010000 5 226 0.0 0.0 0.00 0.28 0.00 82 1014.0
20260506005502 5 226 0.0 0.0 0.00 0.28 0.00 82 1014.0
20260506005003 5 226 0.0 0.0 0.00 0.28 0.00 82 1014.0
20260506004501 6 226 0.0 0.0 0.00 0.28 0.00 82 1014.1
20260506004412 6 226 0.0 0.0 0.00 0.28 0.00 82 1014.0
20260506003500 6 226 0.0 0.0 0.00 0.28 0.00 82 1014.1
20260506003000 6 226 0.0 0.0 0.00 0.28 0.00 83 1014.1
20260506002911 6 226 0.0 0.0 0.00 0.28 0.00 82 1014.2
20260506002001 6 226 0.0 0.0 0.00 0.28 0.00 83 1014.1
20260506001500 6 226 0.0 0.0 0.00 0.28 0.00 83 1014.1
20260506001001 6 226 0.0 0.0 0.00 0.28 0.00 83 1014.2
20260506000500 6 226 0.0 0.0 0.00 0.28 0.00 83 1014.2
20260505235959 6 226 0.0 0.0 0.00 0.28 0.00 83 1014.2
20260505235459 6 226 0.0 0.0 0.00 0.28 0.00 83 1014.1
20260505234959 6 226 0.0 0.0 0.00 0.28 0.00 83 1014.2
20260505234501 6 226 0.0 0.0 0.00 0.28 0.00 83 1014.2
20260505233959 6 226 0.0 0.0 0.00 0.28 0.00 83 1014.2
20260505233840 6 227 0.0 0.0 0.00 0.28 0.00 83 1014.2
20260505233648 6 226 0.0 0.0 0.00 0.28 0.00 83 1014.2
20260505232458 6 226 0.0 0.0 0.00 0.28 0.00 83 1014.2
20260505232425 6 227 0.0 0.0 0.00 0.28 0.00 84 1014.3
20260505231452 6 227 0.0 0.0 0.00 0.28 0.00 84 1014.4
20260505230954 7 226 0.0 0.0 0.00 0.28 0.00 84 1014.4
20260505230452 7 227 0.0 0.0 0.00 0.28 0.00 84 1014.4
20260505225949 7 226 0.0 0.0 0.00 0.28 0.00 84 1014.4
20260505225447 7 227 0.0 0.0 0.00 0.28 0.00 84 1014.4
20260505224949 7 226 0.0 0.0 0.00 0.28 0.00 84 1014.4
20260505224448 7 227 0.0 6.4 0.00 0.28 0.00 84 1014.5
20260505223942 7 226 0.0 6.4 0.00 0.28 0.00 84 1014.4
20260505223441 7 251 0.0 0.0 0.00 0.28 0.00 84 1014.5
20260505222936 7 259 0.0 0.0 0.00 0.28 0.00 85 1014.5
20260505222850 7 259 0.0 0.0 0.00 0.28 0.00 85 1014.5
20260505221932 7 262 0.0 0.0 0.00 0.28 0.00 85 1014.5
20260505221433 7 219 0.0 0.0 0.00 0.28 0.00 85 1014.5
20260505220932 7 219 0.0 0.0 0.00 0.28 0.00 85 1014.7
20260505220432 7 219 0.0 0.0 0.00 0.28 0.00 85 1014.4
20260505215931 8 219 0.0 0.0 0.00 0.28 0.00 86 1014.5
20260505215844 8 238 0.0 0.0 0.00 0.28 0.00 86 1014.4
20260505214930 8 226 0.0 0.0 0.00 0.28 0.00 86 1014.4
20260505214429 8 259 0.0 0.0 0.00 0.28 0.00 86 1014.5
20260505213931 8 259 0.0 0.0 0.00 0.28 0.00 87 1014.5
20260505213428 8 259 0.0 0.0 0.00 0.28 0.00 87 1014.4
20260505213243 9 271 0.0 4.8 0.00 0.28 0.00 87 1014.3
20260505213101 8 259 0.0 0.0 0.00 0.28 0.00 87 1014.4
20260505212612 8 271 0.0 1.6 0.00 0.28 0.00 87 1014.4
20260505211425 9 282 0.0 4.8 0.00 0.28 0.00 87 1014.4
20260505210927 9 278 0.0 4.8 0.00 0.28 0.00 88 1014.4
20260505210425 10 259 1.6 4.8 0.00 0.28 0.00 88 1014.5
20260505205926 10 276 1.6 6.4 0.00 0.28 0.28 88 1014.5
20260505205424 10 257 0.0 8.0 0.00 0.28 0.28 87 1014.4
20260505205348 10 226 3.2 8.0 0.00 0.28 0.28 87 1014.5
20260505204420 10 252 0.0 11.3 0.00 0.28 0.28 86 1014.5
20260505203918 10 251 1.6 11.3 0.00 0.28 0.28 84 1014.4
20260505203839 10 285 4.8 8.0 0.00 0.28 0.28 84 1014.4
20260505203347 9 124 0.0 0.0 0.00 0.28 0.28 85 1014.5
20260505202416 9 124 0.0 0.0 0.00 0.28 0.28 86 1014.5
20260505201915 9 120 0.0 0.0 0.00 0.28 0.28 86 1014.4
20260505201413 10 120 0.0 0.0 0.00 0.28 0.28 86 1014.4
20260505200914 10 252 0.0 0.0 0.00 0.28 0.28 86 1014.4
20260505200414 10 252 0.0 0.0 0.00 0.28 0.28 87 1014.3
20260505195913 10 252 0.0 0.0 0.00 0.28 0.28 87 1014.3
20260505195411 10 252 0.0 0.0 0.00 0.28 0.28 87 1014.2
20260505194911 10 252 0.0 0.0 0.00 0.28 0.28 87 1014.3
20260505194413 10 252 0.0 0.0 0.00 0.28 0.28 87 1014.4
20260505193910 11 252 0.0 0.0 0.00 0.28 0.28 87 1014.3
20260505193410 11 252 0.0 0.0 0.00 0.28 0.28 87 1014.2
20260505192909 11 252 0.0 0.0 0.00 0.28 0.28 88 1014.3
20260505192408 11 252 0.0 0.0 0.00 0.28 0.28 88 1014.2
20260505191905 11 252 0.0 0.0 0.00 0.28 0.28 88 1014.2
20260505191408 11 252 0.0 0.0 0.00 0.28 0.28 87 1014.2
20260505190903 12 252 0.0 0.0 0.00 0.28 0.28 87 1014.2
20260505190403 12 252 0.0 0.0 0.00 0.28 0.28 87 1014.2
20260505185903 13 252 0.0 0.0 0.00 0.28 0.28 87 1014.1
20260505185404 13 252 0.0 0.0 0.00 0.28 0.28 86 1014.1
20260505184903 13 252 0.0 0.0 0.00 0.28 0.28 86 1014.0
20260505184405 14 252 0.0 0.0 0.00 0.28 0.28 85 1013.9
20260505184315 13 266 0.0 0.0 0.00 0.28 0.28 86 1013.9
20260505183404 13 264 0.0 0.0 0.00 0.28 0.28 87 1013.9
20260505183320 13 135 0.0 0.0 0.00 0.28 0.28 87 1013.8
20260505182402 13 141 0.0 0.0 0.00 0.28 0.28 87 1013.7
20260505182325 13 219 0.0 6.4 0.00 0.28 0.28 86 1013.8
20260505181403 13 261 1.6 9.7 0.00 0.28 0.28 85 1014.1
20260505180902 13 265 1.6 9.7 0.00 0.28 0.28 86 1014.3
20260505180401 13 240 0.0 14.5 0.00 0.28 0.28 87 1014.2
20260505175903 13 252 4.8 14.5 0.00 0.28 0.28 87 1014.2
20260505175402 13 259 6.4 14.5 0.00 0.28 0.28 87 1014.2
20260505174904 13 244 0.0 0.0 0.00 0.28 0.28 87 1014.1
20260505174403 13 245 0.0 0.0 0.00 0.28 0.28 87 1014.0
20260505174329 13 245 0.0 0.0 0.00 0.28 0.28 87 1013.9
20260505173402 13 245 0.0 0.0 0.00 0.28 0.28 87 1013.8
20260505172905 14 245 0.0 0.0 0.00 0.28 0.28 87 1013.8
20260505172403 14 245 0.0 0.0 0.00 0.28 0.28 86 1013.8
20260505171905 15 245 0.0 0.0 0.00 0.28 0.28 86 1013.7
20260505171819 15 245 0.0 0.0 0.00 0.28 0.28 85 1013.7
20260505170902 15 245 0.0 0.0 0.00 0.28 0.28 85 1013.7
20260505170831 16 245 0.0 0.0 0.00 0.28 0.28 84 1013.6
20260505165902 16 30 0.0 0.0 0.00 0.28 0.28 84 1013.6
20260505165403 16 30 0.0 0.0 0.00 0.28 0.28 84 1013.7
20260505164903 16 30 0.0 0.0 0.00 0.28 0.28 83 1013.6
20260505164405 16 30 0.0 0.0 0.00 0.28 0.28 82 1013.6
20260505163903 16 32 0.0 0.0 0.00 0.28 0.28 82 1013.5
20260505163404 16 13 0.0 0.0 0.00 0.28 0.28 81 1013.5
20260505162903 17 13 0.0 0.0 0.00 0.28 0.28 81 1013.5
20260505162405 17 13 0.0 0.0 0.00 0.28 0.28 79 1013.5
20260505161902 18 13 0.0 0.0 0.00 0.28 0.28 78 1013.6
20260505161404 18 13 0.0 0.0 0.00 0.28 0.28 79 1013.6
20260505160903 18 13 0.0 0.0 0.00 0.28 0.28 79 1013.6
20260505160402 18 13 0.0 0.0 0.00 0.28 0.28 74 1013.7
20260505153215 21 248 1.6 3.2 0.00 0.28 0.28 68 1013.6
20260505153206 21 275 0.0 3.2 0.00 0.28 0.28 71 1013.6
20260505153026 20 278 0.0 0.0 0.00 0.28 0.28 72 1013.6
20260505151357 21 275 0.0 3.2 0.00 0.28 0.28 69 1013.7
20260505150859 21 279 0.0 3.2 0.00 0.28 0.28 70 1013.8
20260505150357 21 247 0.0 1.6 0.00 0.28 0.28 72 1013.8
20260505140348 17 250 0.0 8.0 0.00 0.28 0.28 87 1013.9
20260505130302 16 39 0.0 0.0 0.28 0.00 0.28 85 1014.1
20260505124844 17 54 0.0 4.8 0.28 0.00 0.28 78 1013.9
20260505124810 19 341 1.6 4.8 0.28 0.00 0.25 71 1013.9
20260505123847 21 147 0.0 4.8 0.15 0.00 0.13 61 1013.9
20260505123343 22 54 0.0 9.7 0.03 0.00 0.00 53 1013.9
20260505122845 22 104 1.6 14.5 0.00 0.00 0.00 51 1013.8
20260505122345 22 118 1.6 16.1 0.00 0.00 0.00 51 1013.8
20260505121844 23 134 0.0 20.9 0.00 0.00 0.00 50 1013.7
20260505121343 23 180 4.8 20.9 0.00 0.00 0.00 49 1013.8